Home   Weather   Haltern am See   Past weeks

Flag for Germany Past Weather in Haltern am See, North Rhine-Westphalia, Germany — Yesterday and Last 2 Weeks

Now
30 °F

Ice fog.


Feels Like: 30 °F
Forecast: 25 / 33 °F
Wind: 2 mph from North

Location: Dortmund / Wickede

Current Time: Jan 24, 2017 at 6:29:05 am

Latest Report: Jan 24, 2017 at 5:50 am


Visibility: 2 mi

Pressure: 30.27 "Hg

Humidity: 86%

Dew Point: 27 °F

Location of Haltern am SeeLocation

Past Weather in Haltern am See — Graph

°F

Haltern am See Temperature Yesterday

Maximum temperature yesterday: 28 °F (at 8:20 pm)
Minimum temperature yesterday: 19 °F (at 5:50 am)
Average temperature yesterday: 25 °F

High & Low Weather Summary for the Past Weeks

 TemperatureHumidityPressure
High43 °F (Jan 11, 2:20 pm)93% (Jan 9, 5:20 am)30.69 "Hg (Jan 9, 5:20 am)
Low19 °F (Jan 19, 1:20 am)41% (Jan 20, 2:20 pm)29.06 "Hg (Jan 13, 5:20 am)
Average31 °F80%30.16 "Hg
* Reported Jan 9 5:20 am — Jan 24 5:20 am, Haltern am See, Weather by CustomWeather, © 2017

Note: Actual official high and low records may vary slightly from our data, if they occured in-between our weather recording intervals... More about our weather records

Advertising

Haltern am See Weather History for the Previous 24 Hours

Scroll right to see more
 ConditionsComfort  
Time TempWeatherWind HumidityBarometerVisibility
5:20 am
Tue, Jan 24
28 °FIce fog.5 mph93%30.27 "Hg2 mi
9:50 pm
Mon, Jan 23
28 °FIce fog.6 mph86%30.30 "Hg1 mi
9:20 pm28 °FIce fog.6 mph86%30.30 "Hg1 mi
8:50 pm28 °FIce fog.6 mph86%30.30 "Hg1 mi
8:20 pm28 °FIce fog.7 mph86%30.30 "Hg1 mi
7:50 pm27 °FIce fog.6 mph93%30.30 "Hg1 mi
7:20 pm27 °FIce fog.8 mph93%30.30 "Hg1 mi
6:50 pm27 °FIce fog.6 mph93%30.30 "Hg1 mi
6:20 pm27 °FIce fog.7 mph93%30.30 "Hg1 mi
5:50 pm27 °FIce fog.6 mph93%30.30 "Hg1 mi
5:20 pm27 °FIce fog.5 mph93%30.30 "Hg1 mi
4:50 pm27 °FIce fog.5 mph93%30.30 "Hg1 mi
4:20 pm27 °FIce fog.5 mph93%30.30 "Hg1 mi
3:50 pm27 °FIce fog.3 mph93%30.30 "Hg1 mi
3:20 pm27 °FIce fog.No wind93%30.30 "Hg1 mi
2:50 pm27 °FIce fog.No wind93%30.30 "Hg1 mi
2:20 pm25 °FIce fog.No wind93%30.30 "Hg1 mi
1:50 pm25 °FIce fog.No wind93%30.30 "Hg1 mi
1:20 pm25 °FIce fog.No wind93%30.30 "Hg1 mi
12:50 pm25 °FIce fog.No wind93%30.33 "Hg1 mi
12:20 pm25 °FIce fog.3 mph93%30.33 "Hg1 mi
11:50 am25 °FIce fog.No wind93%30.33 "Hg1 mi
11:20 am25 °FIce fog.No wind86%30.33 "Hg1 mi
10:50 am23 °FIce fog.No wind93%30.33 "Hg1 mi
10:20 am23 °FIce fog.No wind93%30.30 "Hg1 mi
9:50 am23 °FIce fog.3 mph86%30.30 "Hg1 mi
9:20 am23 °FIce fog.5 mph93%30.30 "Hg1 mi
8:50 am23 °FIce fog.3 mph93%30.30 "Hg1 mi
8:20 am21 °FIce fog.2 mph93%30.30 "Hg1 mi
7:50 am21 °FIce fog.5 mph93%30.30 "Hg0 mi
7:20 am21 °FIce fog.6 mph86%30.30 "Hg2 mi
6:50 am19 °FLow clouds.2 mph86%30.27 "Hg4 mi
6:20 am19 °FClear.7 mph86%30.27 "Hg10 mi
Weather by CustomWeather, © 2017

See weather overviewHow to use our weather pages